[[[{"header":{"parameterUnit":"kt","parameterCategory":2,"dx":1,"dy":1,"la1":30.253999710083008,"la2":30.299108505249023,"lo1":-89.0895004272461,"lo2":-89.04439544677734,"nx":28,"ny":28,"refTime":"2022-10-09T21:00:00:Z","depth":"0","parameterNumber":2,"parameterNumberName":"U-component_of_CURRENTS"},"data":[0.2431,0.2363,0.2372,0.2263,0.225,0.2186,0.2195,0.2238,0.2347,0.2457,0.259,0.2782,0.2911,0.2939,0.2781,0.2767,0.246,0.246,0.2399,0.2656,0.2699,0.274,0.261,0.2329,0.2328,0.1734,0.1728,0.1724,0.2531,0.2523,0.2509,0.2488,0.2443,0.251,0.2553,0.2543,0.2586,0.2775,0.2917,0.3162,0.3321,0.3494,0.3571,0.3404,0.3315,0.3255,0.2986,0.293,0.3483,0.3379,0.3257,0.3257,0.3257,0.3258,0.3258,0.3258,0.2701,0.2674,0.2669,0.2662,0.2668,0.2673,0.266,0.2748,0.2811,0.2937,0.3154,0.3324,0.3588,0.3975,0.403,0.3974,0.4018,0.3814,0.3759,0.3686,0.3497,0.409,0.4201,0.4203,0.4205,0.4206,0.4207,0,0.2815,0.2821,0.2828,0.2821,0.2828,0.2845,0.2896,0.2916,0.306,0.3141,0.3294,0.3425,0.3773,0.393,0.4208,0.4286,0.4052,0.4299,0.4036,0.3637,0.3459,0.3316,0.3915,0.4089,0.409,0.4091,0.4092,0.4092,0.2947,0.2922,0.2971,0.2966,0.2989,0.3007,0.3017,0.3131,0.3164,0.3344,0.3373,0.3599,0.3734,0.4032,0.4197,0.4377,0.4181,0.432,0.4208,0.3908,0.379,0.367,0.3563,0.4104,0.4103,0.4101,0.41,0,0.3013,0.3056,0.3049,0.3111,0.3129,0.3126,0.3196,0.3208,0.3302,0.3356,0.3388,0.3582,0.3769,0.3931,0.4102,0.4162,0.414,0.4318,0.4139,0.4096,0.3866,0.3775,0.3787,0.3674,0.4408,0.4409,0.441,0,0.3132,0.3129,0.3188,0.3175,0.3184,0.3241,0.3252,0.331,0.3381,0.3419,0.3531,0.3588,0.3741,0.3877,0.3936,0.4088,0.4125,0.4104,0.4083,0.3936,0.3918,0.3698,0.3595,0.414,0.4139,0.4137,0.4136,0,0.3178,0.3234,0.3229,0.3237,0.3277,0.3298,0.3327,0.3384,0.3403,0.3481,0.3492,0.3643,0.3678,0.3799,0.3869,0.3816,0.4045,0.3947,0.4009,0.4005,0.3914,0.3895,0.383,0.4135,0.4134,0.4134,0.4133,0,0.3255,0.3263,0.328,0.3303,0.3301,0.3322,0.3332,0.3368,0.3433,0.3428,0.3515,0.3517,0.3636,0.3577,0.3762,0.3688,0.3733,0.3739,0.3743,0.3735,0.3609,0.3631,0.3767,0.3496,0.3723,0.372,0.3717,0,0.3272,0.3282,0.3282,0.3307,0.3292,0.3288,0.3326,0.3342,0.3334,0.3354,0.3388,0.34,0.3404,0.3385,0.3478,0.3471,0.3575,0.346,0.3566,0.357,0.357,0.3723,0.3581,0.3719,0.3676,0.368,0.3683,0,0.3235,0.3234,0.3231,0.3213,0.3197,0.3189,0.3245,0.3247,0.3263,0.3263,0.3297,0.3334,0.332,0.3328,0.3297,0.3361,0.3499,0.3316,0.3318,0.3398,0.3675,0.3664,0.369,0.3477,0.3482,0.3486,0.3651,0,0.3165,0.3174,0.3199,0.3153,0.3156,0.3167,0.3135,0.3137,0.3098,0.3091,0.3131,0.3102,0.3125,0.3108,0.3082,0.3204,0.3185,0.3137,0.312,0.3203,0.3254,0.328,0.295,0.2949,0.2947,0.2946,0,0,0.3098,0.3087,0.3036,0.3039,0.3036,0.2976,0.299,0.2993,0.2967,0.2979,0.2934,0.2955,0.293,0.3009,0.3027,0.2984,0.3022,0.3005,0.3132,0.3153,0.3172,0.3227,0.3253,0.2944,0.2943,0.2942,0.2942,0,0.3026,0.3009,0.3017,0.3001,0.297,0.2947,0.2947,0.2919,0.2918,0.291,0.2897,0.2906,0.2879,0.2908,0.2913,0.2957,0.2971,0.2937,0.3039,0.3116,0.3138,0.3158,0.3217,0.3241,0.2938,0.2939,0.2939,0,0.292,0.2889,0.29,0.2877,0.2872,0.288,0.2837,0.2858,0.2874,0.2819,0.2846,0.2825,0.2814,0.284,0.2845,0.2825,0.293,0.2851,0.2858,0.2912,0.2992,0.3016,0.3037,0.2769,0.2769,0.2769,0,0,0.2853,0.2853,0.2815,0.2862,0.2852,0.2828,0.2835,0.2825,0.2822,0.2824,0.2808,0.2799,0.2808,0.2807,0.2806,0.2812,0.2848,0.2834,0.2842,0.2849,0.2906,0.2987,0.3009,0.2768,0.2768,0.2768,0,0,0.2845,0.28,0.2769,0.2818,0.2802,0.2799,0.2834,0.2807,0.2808,0.2814,0.279,0.2788,0.2808,0.2783,0.2774,0.2811,0.2773,0.2774,0.2842,0.2851,0.2859,0.2935,0.2764,0,0,0,0,0,0.2744,0.2794,0.2765,0.2769,0.2784,0.2795,0.2797,0.2806,0.2795,0.2811,0.2799,0.2789,0.2784,0.2777,0.2772,0.2811,0.2758,0.276,0.2762,0.285,0.286,0.2869,0,0,0,0,0,0,0.2745,0.275,0.2765,0.2762,0.2766,0.2794,0.2785,0.2788,0.2795,0.2797,0.279,0.2789,0.2782,0.2778,0.2774,0.2812,0.2765,0.2759,0.276,0.2762,0.2854,0.2862,0.2869,0,0,0,0,0,0.2746,0.275,0.2775,0.2762,0.2765,0.2777,0.2786,0.2788,0.2795,0.2786,0.2785,0.2804,0.2782,0.2779,0.2775,0.2815,0.2768,0.2766,0.276,0.2761,0.2762,0.2858,0,0,0,0,0,0,0.2747,0.2746,0.2776,0.2776,0.2768,0.2776,0.2779,0.2788,0.2782,0.2783,0.2798,0.2799,0.2782,0.2779,0.2776,0.2819,0.277,0.2769,0.2768,0.2761,0.2762,0.2763,0,0,0,0,0,0,0.2744,0.2747,0.2776,0.2783,0.2785,0.2776,0.2779,0.2762,0.2781,0.2794,0.2796,0.2798,0.2781,0.2779,0.2777,0.275,0.2772,0.277,0.2769,0.2769,0.2762,0.2762,0,0,0,0,0,0,0.2745,0.2747,0.2783,0.2784,0.2785,0.2792,0.2759,0.2771,0.28,0.2793,0.2802,0.2802,0.278,0.2779,0.2778,0.2752,0.2751,0.2772,0.2771,0.277,0.277,0,0,0,0,0,0,0,0.2746,0.2734,0.2774,0.2785,0.2786,0.2782,0.2782,0.2782,0.28,0.2801,0.2801,0.2802,0.278,0.2778,0.2777,0.2753,0,0,0.2772,0.2771,0,0,0,0,0,0,0,0,0.2733,0.2734,0.2774,0.2774,0.2774,0.2782,0.2782,0.2782,0.28,0.2801,0.2801,0.2802,0.2779,0.2778,0.2777,0,0,0,0,0,0,0,0,0,0,0,0,0,0,0,0.2774,0.2774,0,0.2782,0.2782,0.2782,0.28,0.2801,0.2801,0.2802,0.2779,0.2778,0.2777,0,0,0,0,0,0,0,0,0,0,0,0,0,0,0,0,0,0,0,0,0,0,0,0,0,0,0,0,0,0,0,0,0,0,0,0,0,0,0,0,0,0,0,0,0,0,0,0,0,0,0,0,0,0,0,0,0,0,0,0,0,0,0,0,0,0,0,0,0]}],[{"header":{"parameterUnit":"kt","parameterCategory":2,"dx":1,"dy":1,"la1":30.253999710083008,"la2":30.299108505249023,"lo1":-89.0895004272461,"lo2":-89.04439544677734,"nx":28,"ny":28,"refTime":"2022-10-09T21:00:00:Z","depth":"0","parameterNumber":3,"parameterNumberName":"V-component_of_CURRENTS"},"data":[0.0567,0.0577,0.0594,0.0663,0.0709,0.0789,0.0856,0.0963,0.1044,0.1115,0.1116,0.1084,0.0745,-0.0044,-0.0699,-0.0876,-0.1092,-0.1147,-0.1305,-0.1015,-0.0993,-0.0973,-0.0995,-0.1184,-0.1185,-0.1582,-0.1586,-0.1589,0.0578,0.0595,0.0624,0.0665,0.0717,0.075,0.0852,0.0913,0.1025,0.1108,0.1158,0.1014,0.0675,0.0267,-0.0291,-0.0611,-0.0738,-0.0802,-0.0835,-0.0895,-0.0538,-0.0544,-0.0639,-0.0639,-0.0639,-0.0639,-0.0639,-0.0639,0.0593,0.0606,0.0614,0.0646,0.0693,0.0763,0.0816,0.0884,0.0966,0.1045,0.103,0.1039,0.0751,0.0295,0.0031,-0.0404,-0.0439,-0.0521,-0.061,-0.0651,-0.0748,-0.04,-0.0445,-0.0445,-0.0445,-0.0446,-0.0446,0,0.0584,0.0593,0.0601,0.063,0.0665,0.0714,0.0761,0.0808,0.0834,0.0886,0.0925,0.0909,0.0671,0.0459,0.0109,-0.0083,-0.0353,-0.0291,-0.0406,-0.0488,-0.0571,-0.0695,-0.031,-0.0273,-0.0272,-0.0272,-0.0272,-0.0271,0.0565,0.0576,0.0592,0.0605,0.0605,0.0649,0.0681,0.07,0.0725,0.0759,0.0781,0.0707,0.0661,0.0401,0.0141,-0.0109,-0.0263,-0.0267,-0.0304,-0.044,-0.0576,-0.0635,-0.0709,-0.0266,-0.0266,-0.0267,-0.0267,0,0.0555,0.0534,0.0551,0.0556,0.0569,0.0601,0.0626,0.0662,0.0665,0.0694,0.0693,0.0642,0.053,0.0359,0.0193,0.0046,-0.0195,-0.0193,-0.0165,-0.0211,-0.0462,-0.0551,-0.064,-0.0731,-0.0337,-0.0338,-0.034,0,0.0502,0.0519,0.049,0.0492,0.0548,0.0508,0.0565,0.0554,0.0561,0.0582,0.0505,0.0518,0.037,0.0286,0.0126,-0.0045,0.0014,-0.0214,-0.0265,-0.0232,-0.0239,-0.0351,-0.0442,-0.0136,-0.0136,-0.0136,-0.0135,0,0.0441,0.0431,0.0444,0.0433,0.0401,0.043,0.0424,0.0404,0.0408,0.0397,0.0402,0.0361,0.0329,0.0236,0.0047,0.0019,-0.0051,-0.0111,-0.0261,-0.027,-0.0252,-0.0263,-0.0291,-0.0135,-0.0135,-0.0135,-0.0135,0,0.0361,0.035,0.0356,0.0351,0.0344,0.0344,0.0354,0.0335,0.0313,0.0281,0.026,0.0183,0.016,0.0061,-0.0019,-0.003,-0.013,-0.021,-0.0214,-0.0291,-0.0398,-0.0385,-0.033,-0.0444,-0.0322,-0.0323,-0.0323,0,0.0314,0.0305,0.0258,0.0263,0.0245,0.0181,0.0187,0.0147,0.0095,0.0087,0.0026,-0.0009,-0.0109,-0.0133,-0.0141,-0.0245,-0.0247,-0.0261,-0.0338,-0.0339,-0.0397,-0.0344,-0.0308,-0.0342,-0.0334,-0.0333,-0.0332,0,0.0263,0.019,0.0193,0.0186,0.0103,0.007,0.006,0.0017,0.0033,-0.0064,-0.0043,-0.0137,-0.0183,-0.0209,-0.0286,-0.0287,-0.0274,-0.0363,-0.0365,-0.037,-0.028,-0.0353,-0.0354,-0.0306,-0.0303,-0.0301,-0.034,0,0.0172,0.0157,0.0151,0.0103,0.0058,0.0031,-0.0058,-0.0087,-0.0148,-0.021,-0.0235,-0.0332,-0.037,-0.0404,-0.0471,-0.0429,-0.0474,-0.0507,-0.0512,-0.0463,-0.0495,-0.0488,-0.0591,-0.0592,-0.0593,-0.0594,0,0,0.0145,0.012,0.0045,0.0026,-0.0007,-0.0118,-0.0132,-0.0195,-0.0315,-0.0323,-0.0381,-0.0472,-0.0529,-0.0524,-0.0539,-0.0578,-0.0596,-0.0546,-0.0502,-0.0491,-0.0482,-0.0507,-0.05,-0.0597,-0.0597,-0.0597,-0.0598,0,0.0106,0.0061,0.0061,0.0006,-0.0083,-0.0156,-0.0161,-0.0288,-0.0334,-0.0387,-0.0468,-0.0503,-0.0573,-0.0606,-0.0628,-0.06,-0.0624,-0.0619,-0.0521,-0.0513,-0.0501,-0.0491,-0.0514,-0.0506,-0.0601,-0.0601,-0.06,0,0.0065,0.0014,0.0004,-0.0088,-0.0163,-0.0207,-0.0297,-0.036,-0.0386,-0.0487,-0.0534,-0.0598,-0.0653,-0.0675,-0.068,-0.0685,-0.0644,-0.0668,-0.0663,-0.0621,-0.0613,-0.06,-0.0588,-0.0734,-0.0734,-0.0735,0,0,0.0042,0.003,-0.0084,-0.0107,-0.0143,-0.0264,-0.0312,-0.0379,-0.0465,-0.0502,-0.0563,-0.0613,-0.0654,-0.0661,-0.0708,-0.0701,-0.0707,-0.0681,-0.0675,-0.0669,-0.0625,-0.0616,-0.0604,-0.0735,-0.0735,-0.0735,0,0,0.0015,-0.008,-0.0114,-0.0148,-0.0231,-0.0374,-0.0403,-0.0464,-0.0539,-0.0543,-0.0618,-0.0632,-0.0653,-0.0676,-0.0679,-0.0688,-0.0719,-0.0719,-0.0659,-0.0652,-0.0646,-0.0585,-0.0715,0,0,0,0,0,-0.006,-0.006,-0.0089,-0.0109,-0.0255,-0.0349,-0.0374,-0.0481,-0.0512,-0.053,-0.06,-0.0613,-0.0704,-0.0709,-0.0715,-0.068,-0.0741,-0.074,-0.0739,-0.0663,-0.0655,-0.0648,0,0,0,0,0,0,-0.0069,-0.0091,-0.0091,-0.0224,-0.0259,-0.035,-0.0425,-0.0455,-0.0513,-0.0525,-0.0606,-0.0616,-0.0669,-0.0707,-0.0712,-0.0678,-0.0713,-0.074,-0.0739,-0.0739,-0.066,-0.0654,-0.0648,0,0,0,0,0,-0.0076,-0.0094,-0.0289,-0.0227,-0.0257,-0.0399,-0.0425,-0.0451,-0.0502,-0.0583,-0.0598,-0.0576,-0.0667,-0.0675,-0.071,-0.0674,-0.071,-0.0712,-0.074,-0.0739,-0.0738,-0.0657,0,0,0,0,0,0,-0.0082,-0.0134,-0.0299,-0.0314,-0.0227,-0.0397,-0.0423,-0.0447,-0.0557,-0.0575,-0.0554,-0.0561,-0.0666,-0.0672,-0.0678,-0.0671,-0.0707,-0.0709,-0.071,-0.0739,-0.0739,-0.0738,0,0,0,0,0,0,-0.0126,-0.0145,-0.0307,-0.0301,-0.0316,-0.0395,-0.0418,-0.0433,-0.0552,-0.0521,-0.0533,-0.0555,-0.0619,-0.067,-0.0675,-0.0698,-0.0705,-0.0707,-0.0708,-0.0709,-0.0739,-0.0738,0,0,0,0,0,0,-0.0137,-0.0154,-0.0298,-0.031,-0.0324,-0.0503,-0.0408,-0.0528,-0.0618,-0.0512,-0.0621,-0.0622,-0.0612,-0.0621,-0.0673,-0.0694,-0.0697,-0.0705,-0.0706,-0.0707,-0.0708,0,0,0,0,0,0,0,-0.0146,0.0008,-0.0205,-0.0317,-0.0329,-0.0452,-0.0457,-0.0461,-0.0618,-0.0619,-0.062,-0.0621,-0.0695,-0.0697,-0.0699,-0.069,0,0,-0.0705,-0.0706,0,0,0,0,0,0,0,0,0.0012,0.0009,-0.0206,-0.0209,-0.0211,-0.0453,-0.0457,-0.046,-0.0618,-0.0619,-0.062,-0.0621,-0.0695,-0.0697,-0.0698,0,0,0,0,0,0,0,0,0,0,0,0,0,0,0,-0.0206,-0.0208,0,-0.0453,-0.0456,-0.0459,-0.0619,-0.0619,-0.062,-0.0621,-0.0696,-0.0697,-0.0698,0,0,0,0,0,0,0,0,0,0,0,0,0,0,0,0,0,0,0,0,0,0,0,0,0,0,0,0,0,0,0,0,0,0,0,0,0,0,0,0,0,0,0,0,0,0,0,0,0,0,0,0,0,0,0,0,0,0,0,0,0,0,0,0,0,0,0,0,0]}]],[[{"header":{"parameterUnit":"kt","parameterCategory":2,"dx":1,"dy":1,"la1":30.253999710083008,"la2":30.299108505249023,"lo1":-89.0895004272461,"lo2":-89.04439544677734,"nx":28,"ny":28,"refTime":"2022-10-09T21:00:00:Z","depth":"2","parameterNumber":2,"parameterNumberName":"U-component_of_CURRENTS"},"data":[0.2584,0.251,0.2515,0.2397,0.2374,0.2319,0.2329,0.2456,0.2466,0.2469,0.2299,0.2527,0.2297,0.1813,0.1842,0.1717,0.2014,0.1692,0.296,0.2559,0.2617,0.2805,0.2562,0,0,0,0,0,0.2677,0.2654,0.2635,0.2608,0.2565,0.2624,0.2669,0.2704,0.2767,0.2868,0.3072,0.2646,0.2583,0.257,0.2335,0.251,0.2338,0.2603,0.2222,0.2291,0.2352,0.2148,0.1677,0.1674,0.1672,0.167,0,0,0.2832,0.2804,0.2792,0.278,0.2784,0.2788,0.2775,0.2872,0.2944,0.3123,0.3336,0.3358,0.3259,0.3278,0.3302,0.3317,0.3612,0.3532,0.3541,0.3562,0.3431,0.3332,0.3294,0.3301,0.3308,0.3314,0.3319,0,0.2942,0.2945,0.2949,0.2937,0.2941,0.2958,0.3009,0.3031,0.3178,0.3266,0.3424,0.3574,0.3769,0.3659,0.3909,0.3937,0.3981,0.3915,0.464,0.3294,0.3176,0.312,0.3132,0.3138,0.3145,0.315,0.3154,0.3157,0.3067,0.3041,0.3086,0.3078,0.31,0.3118,0.3128,0.3244,0.3279,0.3465,0.3496,0.3731,0.3885,0.4204,0.418,0.4328,0.4539,0.4055,0.3884,0.4445,0.4397,0.4369,0.4342,0.3233,0.3223,0.3215,0.3209,0,0.313,0.3169,0.3162,0.3222,0.3239,0.3237,0.3307,0.3321,0.3418,0.3477,0.351,0.3706,0.39,0.4064,0.4237,0.431,0.4431,0.4483,0.3837,0.3749,0.4341,0.4317,0.461,0.4613,0.4615,0.4617,0.4619,0,0.3244,0.3241,0.3296,0.3284,0.3293,0.3349,0.3363,0.3421,0.3496,0.3537,0.365,0.371,0.3862,0.3999,0.4055,0.4224,0.4248,0.4253,0.4236,0.3682,0.3634,0.4048,0.4021,0.426,0.4258,0.4257,0.4256,0,0.3287,0.3342,0.3337,0.3345,0.3383,0.3405,0.3433,0.3492,0.3511,0.3593,0.3608,0.3761,0.3796,0.3918,0.3983,0.3927,0.4161,0.4062,0.4153,0.4151,0.3668,0.3617,0.4255,0.4254,0.4254,0.4254,0.4253,0,0.3361,0.3367,0.3385,0.3407,0.3405,0.3427,0.3437,0.3472,0.354,0.3534,0.3626,0.3627,0.3746,0.3682,0.3869,0.3793,0.3837,0.3842,0.3847,0.3868,0.3743,0.3348,0.34,0.3831,0.3827,0.3824,0.3821,0,0.3373,0.3385,0.3382,0.3408,0.3392,0.3385,0.3423,0.3438,0.3428,0.3452,0.3484,0.3499,0.3497,0.3479,0.3574,0.3565,0.3672,0.3552,0.3665,0.3669,0.3696,0.3865,0.3261,0.3367,0.3779,0.3783,0.3786,0,0.3332,0.3326,0.3323,0.3302,0.3285,0.3277,0.3333,0.3334,0.3352,0.3351,0.3391,0.3424,0.3411,0.3419,0.3386,0.3451,0.3593,0.3404,0.3405,0.3486,0.3779,0.3799,0.3829,0.3573,0.3579,0.3583,0.3753,0,0.3248,0.3258,0.3285,0.3237,0.324,0.3252,0.3216,0.3218,0.3178,0.317,0.3213,0.3181,0.3208,0.3191,0.3161,0.3288,0.3268,0.322,0.3201,0.3289,0.3341,0.3368,0.3027,0.3025,0.3024,0.3023,0,0,0.3174,0.3164,0.311,0.3115,0.3112,0.3048,0.3064,0.3064,0.3039,0.3051,0.3005,0.3031,0.3004,0.3086,0.3103,0.306,0.3099,0.308,0.3216,0.3237,0.3257,0.3314,0.3341,0.302,0.3019,0.3019,0.3018,0,0.3095,0.3079,0.309,0.3073,0.304,0.3016,0.3018,0.299,0.2988,0.2979,0.2966,0.2977,0.295,0.2979,0.2983,0.3032,0.3045,0.3013,0.3117,0.3198,0.3222,0.3242,0.3303,0.3328,0.3015,0.3015,0.3015,0,0.298,0.295,0.2963,0.2942,0.2937,0.2947,0.2903,0.2925,0.294,0.2883,0.2911,0.2891,0.2879,0.2905,0.2912,0.289,0.3001,0.292,0.2927,0.298,0.3065,0.309,0.3112,0.2833,0.2832,0.2832,0,0,0.2909,0.2911,0.2874,0.2927,0.2917,0.2893,0.2901,0.2889,0.2886,0.2888,0.2872,0.2863,0.2871,0.2871,0.2869,0.2876,0.2913,0.2901,0.291,0.2917,0.2974,0.306,0.3083,0.2831,0.2831,0.2831,0,0,0.2901,0.2856,0.2823,0.2879,0.2864,0.2862,0.2898,0.2871,0.2872,0.2876,0.2851,0.2848,0.287,0.2844,0.2834,0.2874,0.2834,0.2835,0.2904,0.2914,0.2923,0.2998,0.282,0,0,0,0,0,0.2793,0.285,0.2819,0.2824,0.2843,0.2858,0.2859,0.2868,0.2858,0.2874,0.286,0.285,0.2844,0.2834,0.2829,0.2871,0.2819,0.2821,0.2823,0.2914,0.2925,0.2934,0,0,0,0,0,0,0.2795,0.2801,0.2818,0.2817,0.2822,0.2857,0.2845,0.2847,0.2858,0.286,0.2851,0.2849,0.2839,0.2835,0.2831,0.2872,0.2821,0.282,0.2822,0.2823,0.2918,0.2927,0.2934,0,0,0,0,0,0.2796,0.2802,0.2835,0.2816,0.282,0.2833,0.2846,0.2847,0.2856,0.2844,0.2844,0.2866,0.2839,0.2835,0.2832,0.2875,0.2824,0.2823,0.2821,0.2822,0.2824,0.2922,0,0,0,0,0,0,0.2798,0.2794,0.2836,0.2836,0.2823,0.2832,0.2835,0.2847,0.2839,0.284,0.2857,0.2858,0.2838,0.2836,0.2833,0.2879,0.2826,0.2825,0.2824,0.2822,0.2823,0.2824,0,0,0,0,0,0,0.2792,0.2795,0.2836,0.2844,0.2846,0.2831,0.2834,0.2817,0.2838,0.2851,0.2853,0.2857,0.2839,0.2836,0.2834,0.2806,0.2828,0.2827,0.2826,0.2825,0.2823,0.2824,0,0,0,0,0,0,0.2793,0.2795,0.2844,0.2845,0.2846,0.2852,0.2814,0.283,0.2857,0.2851,0.2859,0.286,0.2839,0.2837,0.2834,0.2807,0.2806,0.2828,0.2827,0.2826,0.2826,0,0,0,0,0,0,0,0.2794,0.2779,0.2835,0.2846,0.2847,0.2843,0.2843,0.2842,0.2857,0.2858,0.2859,0.2859,0.2836,0.2835,0.2833,0.2808,0,0,0.2828,0.2827,0,0,0,0,0,0,0,0,0.2778,0.2779,0.2835,0.2835,0.2836,0.2843,0.2843,0.2842,0.2857,0.2858,0.2859,0.2859,0.2836,0.2835,0.2833,0,0,0,0,0,0,0,0,0,0,0,0,0,0,0,0.2835,0.2835,0,0.2843,0.2843,0.2842,0.2857,0.2858,0.2858,0.2859,0.2836,0.2835,0.2833,0,0,0,0,0,0,0,0,0,0,0,0,0,0,0,0,0,0,0,0,0,0,0,0,0,0,0,0,0,0,0,0,0,0,0,0,0,0,0,0,0,0,0,0,0,0,0,0,0,0,0,0,0,0,0,0,0,0,0,0,0,0,0,0,0,0,0,0,0]}],[{"header":{"parameterUnit":"kt","parameterCategory":2,"dx":1,"dy":1,"la1":30.253999710083008,"la2":30.299108505249023,"lo1":-89.0895004272461,"lo2":-89.04439544677734,"nx":28,"ny":28,"refTime":"2022-10-09T21:00:00:Z","depth":"2","parameterNumber":3,"parameterNumberName":"V-component_of_CURRENTS"},"data":[0.0669,0.0678,0.0691,0.0758,0.08,0.0879,0.0945,0.1059,0.1131,0.1237,0.1232,0.1268,0.0864,0.0577,0.0285,0.0052,-0.0004,0.0003,0.0053,0.0112,0.0115,-0.0097,-0.0071,0,0,0,0,0,0.0676,0.0689,0.0717,0.0755,0.0808,0.0836,0.0938,0.1,0.1112,0.1208,0.1276,0.1032,0.0826,0.0513,0.0121,-0.0085,-0.0109,-0.017,-0.0152,-0.015,-0.0149,-0.0136,-0.0163,-0.0164,-0.0165,-0.0165,0,0,0.0685,0.0698,0.0704,0.0733,0.0779,0.0849,0.0901,0.0969,0.105,0.1147,0.113,0.1106,0.0871,0.0489,0.0235,-0.0042,-0.0033,-0.0128,-0.0127,-0.0127,-0.0112,-0.0121,-0.0132,-0.0132,-0.0133,-0.0133,-0.0133,0,0.0671,0.0678,0.0686,0.0713,0.0747,0.0796,0.0842,0.0889,0.0912,0.0963,0.1001,0.0985,0.0774,0.0569,0.0269,0.0108,-0.0033,-0.0083,-0.0082,-0.0084,-0.0093,-0.0134,-0.0138,-0.01,-0.01,-0.01,-0.01,-0.01,0.0646,0.0657,0.0671,0.0684,0.0684,0.0727,0.0759,0.0775,0.0799,0.083,0.0852,0.0782,0.0737,0.0507,0.0276,0.0048,-0.0013,-0.0078,-0.0111,-0.013,-0.0172,-0.0176,-0.0179,-0.0101,-0.0101,-0.01,-0.01,0,0.0633,0.0612,0.0629,0.0632,0.0645,0.0676,0.07,0.0734,0.0734,0.0762,0.076,0.0705,0.0599,0.0429,0.0263,0.0146,0.0003,-0.0064,-0.0049,-0.0083,-0.0174,-0.0178,-0.0142,-0.0143,-0.0143,-0.0143,-0.0144,0,0.0578,0.0595,0.0566,0.0568,0.0623,0.0583,0.0636,0.0625,0.0629,0.0648,0.0568,0.058,0.0429,0.0347,0.0191,0.005,0.0077,-0.0093,-0.0131,-0.0117,-0.012,-0.014,-0.0147,-0.0075,-0.0074,-0.0074,-0.0074,0,0.052,0.0508,0.052,0.0509,0.048,0.0506,0.05,0.0478,0.0482,0.0466,0.0473,0.0422,0.0393,0.0296,0.0119,0.0093,0.0017,-0.0036,-0.0135,-0.0139,-0.0132,-0.0137,-0.0074,-0.0074,-0.0073,-0.0073,-0.0073,0,0.0441,0.0432,0.0434,0.0432,0.0427,0.0424,0.0435,0.0415,0.039,0.0362,0.0335,0.0265,0.0232,0.0143,0.0056,0.0052,-0.0043,-0.0119,-0.0123,-0.0142,-0.0225,-0.0226,-0.0183,-0.0211,-0.0212,-0.0212,-0.0213,0,0.0399,0.0389,0.0347,0.0349,0.0335,0.0279,0.0279,0.0243,0.0196,0.0189,0.0127,0.0094,-0.0001,-0.002,-0.0039,-0.0133,-0.0144,-0.0152,-0.0217,-0.0219,-0.0226,-0.0182,-0.0163,-0.0192,-0.022,-0.0219,-0.0219,0,0.0358,0.0291,0.0294,0.0292,0.0218,0.0191,0.0172,0.0137,0.015,0.0059,0.0077,-0.0021,-0.0059,-0.0085,-0.0155,-0.0165,-0.0164,-0.0227,-0.0228,-0.0233,-0.0176,-0.0193,-0.0191,-0.0191,-0.0189,-0.0188,-0.0225,0,0.0283,0.027,0.026,0.0224,0.0184,0.0159,0.0085,0.0055,0.0003,-0.0049,-0.0079,-0.0168,-0.0205,-0.0243,-0.0301,-0.0277,-0.0312,-0.0339,-0.0339,-0.0305,-0.0333,-0.0328,-0.0399,-0.04,-0.0401,-0.0402,0,0,0.0268,0.0251,0.0191,0.0173,0.0147,0.0056,0.0043,-0.0016,-0.012,-0.0127,-0.0177,-0.0268,-0.0325,-0.0332,-0.0349,-0.0386,-0.04,-0.0359,-0.0334,-0.0326,-0.0319,-0.0342,-0.0336,-0.0403,-0.0404,-0.0404,-0.0404,0,0.0244,0.0209,0.0208,0.0162,0.0091,0.0031,0.0024,-0.0083,-0.0125,-0.0176,-0.0246,-0.0284,-0.0356,-0.0388,-0.0411,-0.0401,-0.0422,-0.0421,-0.0344,-0.0342,-0.0333,-0.0326,-0.0346,-0.0341,-0.0406,-0.0406,-0.0406,0,0.0223,0.0187,0.0179,0.0106,0.0042,0.0002,-0.0069,-0.0128,-0.0153,-0.0238,-0.0291,-0.0349,-0.0402,-0.0433,-0.0444,-0.0446,-0.0433,-0.045,-0.0446,-0.0409,-0.0408,-0.0398,-0.039,-0.0495,-0.0495,-0.0495,0,0,0.0212,0.0204,0.0116,0.0093,0.0062,-0.0037,-0.0081,-0.0137,-0.0213,-0.0249,-0.0307,-0.0357,-0.0398,-0.0412,-0.0458,-0.0466,-0.047,-0.0458,-0.0454,-0.045,-0.0412,-0.0409,-0.0401,-0.0495,-0.0495,-0.0495,0,0,0.0191,0.0124,0.0101,0.0069,0.0001,-0.0118,-0.0151,-0.0202,-0.0275,-0.028,-0.0347,-0.0362,-0.0394,-0.0416,-0.0414,-0.0444,-0.0465,-0.0466,-0.042,-0.0415,-0.0411,-0.0357,-0.0446,0,0,0,0,0,0.0149,0.0142,0.0123,0.0107,-0.0014,-0.0096,-0.0118,-0.0211,-0.0239,-0.0262,-0.0325,-0.034,-0.0437,-0.0437,-0.0445,-0.0427,-0.0497,-0.0497,-0.0496,-0.0441,-0.0436,-0.0431,0,0,0,0,0,0,0.0142,0.0125,0.0122,0.0013,-0.0016,-0.0096,-0.0156,-0.0183,-0.0239,-0.025,-0.0332,-0.0343,-0.0389,-0.0434,-0.0441,-0.0423,-0.0444,-0.0497,-0.0497,-0.0496,-0.0439,-0.0435,-0.0431,0,0,0,0,0,0.0136,0.0122,-0.0038,0.001,-0.0015,-0.0136,-0.0157,-0.0179,-0.0233,-0.0303,-0.0319,-0.0297,-0.0388,-0.0397,-0.0438,-0.0419,-0.0439,-0.0442,-0.0497,-0.0496,-0.0496,-0.0437,0,0,0,0,0,0,0.0132,0.0083,-0.0047,-0.006,0.0011,-0.0136,-0.0158,-0.0176,-0.0283,-0.03,-0.0268,-0.0275,-0.0387,-0.0394,-0.0401,-0.0415,-0.0435,-0.0438,-0.044,-0.0496,-0.0496,-0.0496,0,0,0,0,0,0,0.009,0.0073,-0.0054,-0.0047,-0.0061,-0.0134,-0.0154,-0.0177,-0.028,-0.0243,-0.0253,-0.0269,-0.0345,-0.0392,-0.0397,-0.0433,-0.0432,-0.0435,-0.0437,-0.0438,-0.0496,-0.0496,0,0,0,0,0,0,0.008,0.0066,-0.0045,-0.0055,-0.0067,-0.0223,-0.0155,-0.0258,-0.0327,-0.0235,-0.0329,-0.033,-0.0339,-0.0348,-0.0395,-0.0428,-0.0432,-0.0432,-0.0434,-0.0435,-0.0436,0,0,0,0,0,0,0,0.0072,0.0203,0.0036,-0.0062,-0.0072,-0.0178,-0.0182,-0.0186,-0.0327,-0.0328,-0.0329,-0.0329,-0.0418,-0.0421,-0.0424,-0.0424,0,0,-0.0432,-0.0433,0,0,0,0,0,0,0,0,0.0206,0.0204,0.0036,0.0033,0.0031,-0.0178,-0.0182,-0.0185,-0.0327,-0.0328,-0.0328,-0.0329,-0.0419,-0.0421,-0.0423,0,0,0,0,0,0,0,0,0,0,0,0,0,0,0,0.0035,0.0034,0,-0.0179,-0.0182,-0.0184,-0.0327,-0.0328,-0.0328,-0.0329,-0.0419,-0.0421,-0.0423,0,0,0,0,0,0,0,0,0,0,0,0,0,0,0,0,0,0,0,0,0,0,0,0,0,0,0,0,0,0,0,0,0,0,0,0,0,0,0,0,0,0,0,0,0,0,0,0,0,0,0,0,0,0,0,0,0,0,0,0,0,0,0,0,0,0,0,0,0]}]],[[{"header":{"parameterUnit":"kt","parameterCategory":2,"dx":1,"dy":1,"la1":30.253999710083008,"la2":30.299108505249023,"lo1":-89.0895004272461,"lo2":-89.04439544677734,"nx":28,"ny":28,"refTime":"2022-10-09T21:00:00:Z","depth":"4","parameterNumber":2,"parameterNumberName":"U-component_of_CURRENTS"},"data":[0.0672,0.0705,0.0664,0.0672,0.0737,0.0838,0.0849,0.0884,0.0803,0.0918,0.0945,0.1128,0.1186,0.1263,0.1277,0.1296,0.1356,0.146,0.1457,0.1615,0.163,0.1644,0.1669,0,0,0,0,0,0.0691,0.0672,0.0715,0.0771,0.0888,0.0978,0.101,0.1071,0.1145,0.1062,0.1182,0.1149,0.1228,0.131,0.1266,0.141,0.1493,0.1355,0.1481,0.1625,0.1641,0.1661,0,0,0,0,0,0,0.0723,0.0709,0.0804,0.0883,0.1014,0.1034,0.1108,0.1141,0.1216,0.1343,0.1287,0.1434,0.1553,0.1566,0.1486,0.1473,0.1515,0.1502,0.1524,0.1541,0.1535,0.1488,0.1261,0,0,0,0,0,0.0768,0.0832,0.0858,0.099,0.1119,0.1197,0.1349,0.1324,0.152,0.1689,0.1643,0.1726,0.1665,0.1685,0.164,0.1584,0.1778,0.1684,0.1695,0.1809,0.1793,0.1762,0.1774,0.1705,0.1707,0.1709,0.1709,0,0.0851,0.0869,0.0982,0.104,0.1144,0.1333,0.1461,0.1674,0.1716,0.1892,0.1846,0.1976,0.2019,0.181,0.1859,0.1791,0.1775,0.1726,0.1847,0.1821,0.1784,0.1792,0.1798,0.1723,0.1722,0.1721,0.172,0,0.0859,0.096,0.0984,0.1127,0.1193,0.1299,0.154,0.1646,0.1874,0.196,0.2068,0.2198,0.2184,0.2193,0.2117,0.2049,0.1945,0.1875,0.2005,0.1967,0.1822,0.1823,0.1745,0.174,0.1736,0.1732,0.173,0,0.0933,0.0953,0.1102,0.1135,0.121,0.1356,0.1521,0.1671,0.1874,0.1915,0.2174,0.2192,0.2316,0.2268,0.223,0.2094,0.2147,0.2028,0.1982,0.2143,0.2142,0.21,0.2095,0.2152,0.2153,0.2154,0.2154,0,0.0992,0.1033,0.1103,0.113,0.1236,0.1367,0.1496,0.1689,0.1816,0.206,0.2109,0.2212,0.2313,0.2294,0.2265,0.2288,0.215,0.2177,0.2019,0.2008,0.2102,0.2096,0.2155,0.2155,0.2156,0.2156,0.2156,0,0.1072,0.1096,0.1149,0.1216,0.1242,0.1309,0.1521,0.1652,0.1849,0.1949,0.2086,0.2161,0.2277,0.2294,0.2282,0.2282,0.2242,0.2194,0.2189,0.2042,0.1972,0.2015,0.2084,0.2084,0.2084,0.2085,0.2085,0,0.1137,0.1157,0.1229,0.1249,0.1261,0.1431,0.1532,0.1667,0.1806,0.191,0.2054,0.2147,0.2183,0.2255,0.2257,0.2218,0.2216,0.2238,0.2098,0.2093,0.1975,0.2011,0.2188,0.2087,0.2087,0.2086,0.2086,0,0.1191,0.1281,0.1294,0.1315,0.1417,0.1434,0.1586,0.1705,0.1788,0.1914,0.1995,0.2105,0.2147,0.2166,0.2188,0.2189,0.2212,0.214,0.2137,0.209,0.2147,0.2026,0.2012,0.2184,0.2185,0.2185,0.2088,0,0.1315,0.1334,0.1338,0.1381,0.1418,0.1455,0.1563,0.1677,0.1784,0.1818,0.1944,0.2001,0.2051,0.2065,0.2068,0.2121,0.2061,0.2042,0.1998,0.206,0.2005,0.2005,0.1985,0.1983,0.1982,0.198,0,0,0.137,0.1375,0.1433,0.1439,0.1467,0.1554,0.1561,0.1639,0.1703,0.1767,0.1799,0.1873,0.1906,0.196,0.2,0.1998,0.1952,0.1981,0.2032,0.2038,0.2043,0.1995,0.1997,0.1978,0.1977,0.1976,0.1976,0,0.1404,0.1446,0.1437,0.1465,0.1519,0.154,0.1566,0.1604,0.168,0.1751,0.1759,0.1823,0.1852,0.1878,0.189,0.197,0.1905,0.1964,0.2028,0.2019,0.2027,0.2034,0.1989,0.1991,0.1972,0.1972,0.1973,0,0.1459,0.1476,0.1472,0.1492,0.1507,0.1514,0.1539,0.1579,0.1625,0.1617,0.1695,0.1713,0.1721,0.1777,0.1807,0.1785,0.1852,0.1848,0.1856,0.1858,0.1845,0.1856,0.1864,0.1747,0.1746,0.1746,0,0,0.1486,0.1494,0.1505,0.1491,0.1511,0.1527,0.1538,0.1566,0.1592,0.1615,0.1639,0.1673,0.17,0.1729,0.1745,0.1792,0.1757,0.1823,0.1833,0.1842,0.185,0.184,0.185,0.1744,0.1744,0.1744,0,0,0.1481,0.1494,0.151,0.1493,0.1512,0.1499,0.1514,0.1536,0.158,0.1612,0.1612,0.1622,0.1693,0.1683,0.1659,0.174,0.1693,0.1698,0.1757,0.177,0.1781,0.1787,0.1627,0,0,0,0,0,0.1505,0.1491,0.1505,0.1503,0.1489,0.1489,0.149,0.151,0.1537,0.1557,0.1598,0.1587,0.1672,0.1651,0.1654,0.17,0.1719,0.1724,0.1728,0.1815,0.1828,0.184,0,0,0,0,0,0,0.1503,0.1498,0.1506,0.1488,0.1486,0.1488,0.1491,0.1496,0.1536,0.1543,0.1578,0.1585,0.1579,0.1648,0.1651,0.1696,0.1626,0.1721,0.1725,0.1728,0.1819,0.1831,0.184,0,0,0,0,0,0.1503,0.1499,0.1471,0.1489,0.1487,0.1506,0.1493,0.1497,0.154,0.1538,0.1547,0.1563,0.1577,0.1584,0.165,0.1695,0.1623,0.1625,0.1723,0.1726,0.1729,0.1825,0,0,0,0,0,0,0.1502,0.15,0.1472,0.1472,0.1507,0.1509,0.151,0.1498,0.1535,0.1542,0.1518,0.1522,0.1575,0.1581,0.1586,0.1696,0.1621,0.1623,0.1624,0.1726,0.1728,0.173,0,0,0,0,0,0,0.1503,0.15,0.1472,0.1493,0.1496,0.1512,0.1512,0.152,0.1537,0.1514,0.1518,0.152,0.1585,0.1578,0.1583,0.1593,0.162,0.1621,0.1622,0.1623,0.1728,0.1729,0,0,0,0,0,0,0.1502,0.15,0.1493,0.1495,0.1498,0.1503,0.1521,0.1517,0.1523,0.1513,0.1528,0.153,0.1583,0.1587,0.158,0.1588,0.1592,0.162,0.1621,0.1621,0.1622,0,0,0,0,0,0,0,0.1501,0.151,0.1471,0.1497,0.15,0.1476,0.1476,0.1476,0.1523,0.1525,0.1527,0.1529,0.1612,0.1613,0.1615,0.1584,0,0,0.162,0.162,0,0,0,0,0,0,0,0,0.1512,0.151,0.1471,0.1472,0.1472,0.1476,0.1476,0.1476,0.1524,0.1525,0.1527,0.1528,0.1612,0.1614,0.1615,0,0,0,0,0,0,0,0,0,0,0,0,0,0,0,0.1471,0.1472,0,0.1476,0.1476,0.1476,0.1524,0.1525,0.1527,0.1528,0.1613,0.1614,0.1615,0,0,0,0,0,0,0,0,0,0,0,0,0,0,0,0,0,0,0,0,0,0,0,0,0,0,0,0,0,0,0,0,0,0,0,0,0,0,0,0,0,0,0,0,0,0,0,0,0,0,0,0,0,0,0,0,0,0,0,0,0,0,0,0,0,0,0,0,0]}],[{"header":{"parameterUnit":"kt","parameterCategory":2,"dx":1,"dy":1,"la1":30.253999710083008,"la2":30.299108505249023,"lo1":-89.0895004272461,"lo2":-89.04439544677734,"nx":28,"ny":28,"refTime":"2022-10-09T21:00:00:Z","depth":"4","parameterNumber":3,"parameterNumberName":"V-component_of_CURRENTS"},"data":[0.0393,0.0451,0.0467,0.0513,0.0545,0.0593,0.0631,0.064,0.0629,0.0642,0.054,0.052,0.0323,0.0417,0.0127,0.0089,-0.0001,-0.0153,-0.0156,-0.0296,-0.0299,-0.0301,-0.0279,0,0,0,0,0,0.0397,0.042,0.0478,0.0523,0.0593,0.062,0.0684,0.0692,0.0706,0.0696,0.0656,0.0558,0.0358,0.0256,0.0139,0.0073,-0.0119,-0.0069,-0.0186,-0.0298,-0.03,-0.0278,0,0,0,0,0,0,0.0382,0.0403,0.0467,0.0533,0.0598,0.063,0.0641,0.066,0.0661,0.062,0.0625,0.0466,0.0389,0.019,0.0084,-0.004,-0.0083,-0.0132,-0.0143,-0.0148,-0.0105,0.0007,-0.0005,0,0,0,0,0,0.0368,0.0403,0.0431,0.0515,0.056,0.059,0.0616,0.0636,0.0596,0.0575,0.0525,0.04,0.0304,0.0113,0.0007,-0.0106,-0.0285,-0.0272,-0.0275,-0.0309,-0.0241,-0.0224,-0.0215,-0.031,-0.031,-0.0311,-0.0311,0,0.0356,0.0388,0.0441,0.0472,0.0487,0.0507,0.0528,0.0482,0.0476,0.0416,0.0428,0.0327,0.0234,0.0077,-0.0073,-0.0236,-0.0233,-0.0277,-0.0314,-0.0244,-0.0229,-0.0218,-0.0208,-0.0313,-0.0313,-0.0312,-0.0312,0,0.0353,0.0367,0.0401,0.0412,0.0424,0.0432,0.0437,0.0418,0.0346,0.0328,0.0309,0.0182,0.0082,-0.0037,-0.0166,-0.0217,-0.0304,-0.0292,-0.0226,-0.0213,-0.0218,-0.0207,-0.0316,-0.0315,-0.0315,-0.0314,-0.0314,0,0.0334,0.0348,0.0376,0.0391,0.0402,0.0378,0.0355,0.0298,0.0241,0.023,0.0091,0.0073,-0.0072,-0.0127,-0.0188,-0.0232,-0.028,-0.0253,-0.0249,-0.0237,-0.0226,-0.0248,-0.0237,-0.0344,-0.0344,-0.0344,-0.0344,0,0.0326,0.0339,0.0355,0.0361,0.0355,0.0346,0.0324,0.0242,0.0232,0.0107,0.0093,-0.0041,-0.0042,-0.0145,-0.0157,-0.0156,-0.0248,-0.0257,-0.0226,-0.0219,-0.0243,-0.0232,-0.0344,-0.0344,-0.0344,-0.0344,-0.0343,0,0.0314,0.0333,0.0339,0.035,0.0348,0.0333,0.0283,0.0251,0.0165,0.0135,0.0061,0.0031,-0.0043,-0.0017,-0.0124,-0.0089,-0.01,-0.0115,-0.0117,-0.0092,-0.0043,-0.0024,-0.0087,-0.0086,-0.0084,-0.0082,-0.0081,0,0.0319,0.0335,0.0338,0.0337,0.0349,0.0339,0.0301,0.0268,0.0227,0.0179,0.0141,0.0097,0.011,0.01,0.0038,0.0011,-0.0031,0.002,-0.0058,-0.006,-0.0024,-0.0082,-0.0036,-0.0058,-0.0061,-0.0063,-0.0065,0,0.0332,0.0363,0.0367,0.0385,0.038,0.0379,0.0336,0.0304,0.0269,0.0255,0.0204,0.0159,0.0153,0.0126,0.0123,0.007,0.001,0.0087,0.0084,0.0079,-0.0099,-0.0056,-0.0064,-0.002,-0.0023,-0.0026,-0.0049,0,0.0361,0.038,0.0381,0.0394,0.0387,0.0387,0.0376,0.0366,0.0365,0.0345,0.0297,0.0273,0.0224,0.0227,0.0224,0.0145,0.0172,0.016,0.0151,0.0113,0.0116,0.0104,0.0255,0.0255,0.0256,0.0256,0,0,0.0378,0.0398,0.0421,0.0426,0.0427,0.0439,0.0428,0.0414,0.0403,0.0385,0.0406,0.0333,0.0318,0.0244,0.0245,0.0244,0.0228,0.0236,0.0149,0.0138,0.0127,0.0126,0.0114,0.0256,0.0256,0.0256,0.0256,0,0.0392,0.0421,0.0426,0.0433,0.0449,0.0442,0.0446,0.0445,0.0443,0.0415,0.0408,0.0381,0.0343,0.0308,0.0284,0.0253,0.0239,0.0264,0.0225,0.0154,0.0142,0.0132,0.0129,0.0118,0.0257,0.0257,0.0257,0,0.041,0.0432,0.0437,0.0457,0.046,0.0447,0.0466,0.0466,0.0449,0.0444,0.0416,0.0405,0.0371,0.0334,0.0319,0.0319,0.0243,0.0279,0.0278,0.0254,0.018,0.0168,0.0156,0.0296,0.0296,0.0296,0,0,0.0422,0.0439,0.0451,0.0459,0.0462,0.0465,0.0463,0.0468,0.0456,0.0452,0.0435,0.0412,0.038,0.0362,0.0338,0.0298,0.0272,0.0284,0.0282,0.028,0.0257,0.0183,0.0171,0.0296,0.0296,0.0296,0,0,0.0419,0.0443,0.0459,0.0468,0.0472,0.0464,0.0461,0.0467,0.0451,0.0453,0.0432,0.0425,0.0396,0.0381,0.0389,0.0335,0.0344,0.0341,0.0338,0.0336,0.0334,0.0311,0.0382,0,0,0,0,0,0.044,0.0442,0.0456,0.046,0.0467,0.046,0.0458,0.0463,0.0472,0.0471,0.0453,0.0446,0.0383,0.039,0.038,0.0362,0.0302,0.0301,0.03,0.0288,0.0285,0.0283,0,0,0,0,0,0,0.0441,0.0446,0.0456,0.0452,0.0453,0.046,0.0468,0.0468,0.0473,0.0475,0.0449,0.0445,0.0427,0.0393,0.0385,0.0368,0.0385,0.0301,0.0301,0.03,0.0287,0.0285,0.0283,0,0,0,0,0,0.0443,0.0446,0.0465,0.045,0.0452,0.0457,0.0468,0.0469,0.0473,0.0446,0.0443,0.048,0.0427,0.0419,0.0388,0.0372,0.0391,0.0388,0.0301,0.03,0.03,0.0286,0,0,0,0,0,0,0.0443,0.0435,0.0464,0.0464,0.0462,0.0456,0.0459,0.047,0.0443,0.0441,0.0475,0.0476,0.0426,0.042,0.0414,0.0375,0.0396,0.0393,0.0391,0.03,0.03,0.0299,0,0,0,0,0,0,0.0433,0.0434,0.0464,0.0479,0.0479,0.0456,0.0458,0.0422,0.0441,0.0471,0.0473,0.0476,0.043,0.0421,0.0416,0.0359,0.0399,0.0396,0.0394,0.0393,0.03,0.03,0,0,0,0,0,0,0.0433,0.0434,0.0479,0.0479,0.048,0.047,0.0422,0.0425,0.047,0.0471,0.0473,0.0475,0.043,0.0426,0.0417,0.0362,0.036,0.0399,0.0397,0.0396,0.0395,0,0,0,0,0,0,0,0.0433,0.0431,0.0472,0.048,0.048,0.0458,0.0458,0.0457,0.0471,0.0472,0.0473,0.0474,0.0417,0.0414,0.041,0.0365,0,0,0.04,0.0398,0,0,0,0,0,0,0,0,0.043,0.0431,0.0472,0.0472,0.0473,0.0458,0.0458,0.0457,0.0471,0.0472,0.0473,0.0474,0.0416,0.0413,0.0411,0,0,0,0,0,0,0,0,0,0,0,0,0,0,0,0.0472,0.0472,0,0.0458,0.0458,0.0457,0.0471,0.0472,0.0473,0.0473,0.0415,0.0413,0.0411,0,0,0,0,0,0,0,0,0,0,0,0,0,0,0,0,0,0,0,0,0,0,0,0,0,0,0,0,0,0,0,0,0,0,0,0,0,0,0,0,0,0,0,0,0,0,0,0,0,0,0,0,0,0,0,0,0,0,0,0,0,0,0,0,0,0,0,0,0]}]]]